THORAD AGENA D DEB, 42499

Orbit data source: Space-Track

THORAD AGENA D DEB, 42499 is space debris in SSO originally from a launch on Wed, 08 Apr 1970 UTC launched from the Air Force Western Test Range (AFWTR). Debris objects in space refer to the collection of defunct objects orbiting the Earth. Examples of debris include non-operational satellites, rocket bodies, and fragments generated from explosions, collisions, or faulty payload assembly.

Loading next visibility...
Identifier
42499, 1970-025RD
Orbit
SSO
Country
Flag of USUS
Related business
Manufacturer
Unknown
Mission
Spacecraft
Bus & Motor
Unknown
Mass
Unknown
Launch date (UTC)
1970-04-08 (56 years ago)
Launch vehicle
Unknown
Launch site
Air Force Western Test Range (AFWTR)
Object type
Payload
Rocket body
Debris
Shape & HBR
Unknown shape, 0.1 m
Radar Cross Section
Small (<0.1 m²)

Expand to show TLE details & history
Last TLE update: 3 days ago

TLE from 3 days ago
0 THORAD AGENA D DEB
1 42499U 70025RD  26033.17770612  .00001057  00000-0  10744-2 0  9998
2 42499 100.1004 295.8403 0005161 189.5214 170.5838 13.79526040612738
Epoch: 2026-02-02T04:15Z
TLE epoch observation values (Epoch: 2026-02-02T04:15:53.808Z)
Latitude
-0.00007°
Longitude
99.48938°
Altitude
972.12 km
Speed
7.364 km/s
True Right ascension
19h 43m 21s
True Declination
0° 00' 00"
Sunlit
Object was in daylight at epoch
Visualization orbit readout
Latitude
Unknown
Longitude
Unknown
Altitude
Unknown
Speed
Unknown
Apparent Right ascension
Unknown
Apparent Declination
Unknown
Sunlit
N/A
Visualization observer readout
Local Sidereal Time
20:49:29
Azimuth
Unknown
Elevation
Unknown
Doppler factor
Unknown
Orbital elements
Apogee altitude
966.64 km
Perigee altitude
959.063 km
Semi-major axis
7,340.989 km
Eccentricity
0.00052
Inclination
100.1004°
RAAN
295.8403°
Arg. of periapsis
189.5214°
True anomaly
170.59347°
Mean anomaly
170.5838°
Eccentric anomaly
170.58864°
Mean motion
3.45073 °/min
Orbital period
104.33 mins
BSTAR
0.0010744
Loading maneuver chart data...
Computing Atmospheric mass density...

Documentation

Showing up to 5 results
|